EW6229 Weather Reports


time (UTC)temp
C
wind
direction
speed
KPH
gust
KPH
rain 1hr
cm
rain 24hr
cm
rain mn
cm
humidity
%
barometer
mb
20260506025523 11 195 12.9 20.9 0.00 0.00 0.00 59 1009.5
20260506025024 11 140 12.9 20.9 0.00 0.00 0.00 58 1009.7
20260506024523 11 174 12.9 20.9 0.00 0.00 0.00 58 1009.7
20260506024246 11 169 12.9 20.9 0.00 0.00 0.00 58 1009.9
20260506023523 11 158 12.9 22.5 0.00 0.00 0.00 59 1010.0
20260506023024 11 153 14.5 22.5 0.00 0.00 0.00 59 1009.7
20260506022523 11 201 12.9 20.9 0.00 0.00 0.00 59 1009.6
20260506022024 11 136 11.3 20.9 0.00 0.00 0.00 60 1009.7
20260506021524 11 173 12.9 19.3 0.00 0.00 0.00 59 1009.9
20260506021243 11 132 14.5 22.5 0.00 0.00 0.00 58 1009.9
20260506020523 11 161 12.9 22.5 0.00 0.00 0.00 58 1009.9
20260506020024 11 167 14.5 25.7 0.00 0.00 0.00 58 1009.7
20260506015523 11 161 14.5 25.7 0.00 0.00 0.00 58 1009.9
20260506015022 11 152 12.9 20.9 0.00 0.00 0.00 58 1009.7
20260506014520 11 175 12.9 29.0 0.00 0.00 0.00 57 1009.7
20260506014241 11 154 12.9 29.0 0.00 0.00 0.00 59 1009.7
20260506013520 11 153 11.3 20.9 0.00 0.00 0.00 59 1009.9
20260506013018 11 171 12.9 25.7 0.00 0.00 0.00 60 1009.7
20260506012510 11 190 11.3 25.7 0.00 0.00 0.00 58 1009.6
20260506012009 11 157 11.3 24.1 0.00 0.00 0.00 59 1010.0
20260506011507 10 159 11.3 19.3 0.00 0.00 0.00 63 1009.9
20260506011015 10 109 12.9 20.9 0.00 0.00 0.00 62 1010.0
20260506010506 11 182 14.5 22.5 0.00 0.00 0.00 60 1010.0
20260506010006 11 141 12.9 22.5 0.00 0.00 0.00 60 1009.9
20260506005506 11 163 12.9 20.9 0.00 0.00 0.00 60 1009.7
20260506005005 11 153 14.5 20.9 0.00 0.00 0.00 59 1009.7
20260506004505 11 161 14.5 20.9 0.00 0.00 0.00 60 1009.9
20260506004003 11 157 14.5 24.1 0.00 0.00 0.00 60 1009.9
20260506003952 11 171 16.1 29.0 0.00 0.00 0.00 59 1010.0
20260506003003 11 175 14.5 29.0 0.00 0.00 0.00 59 1009.9
20260506002516 11 117 14.5 25.7 0.00 0.00 0.00 59 1009.9
20260506002239 11 161 12.9 25.7 0.00 0.00 0.00 59 1009.9
20260506001502 11 144 12.9 22.5 0.00 0.00 0.00 59 1009.9
20260506001235 11 133 12.9 22.5 0.00 0.00 0.00 59 1009.9
20260506000506 11 177 8.0 22.5 0.00 0.00 0.00 60 1010.0
20260506000005 11 213 6.4 14.5 0.00 0.00 0.00 60 1009.9
20260505235504 11 142 6.4 16.1 0.00 0.00 0.00 61 1009.9
20260505235001 11 197 8.0 20.9 0.00 0.00 0.00 61 1010.0
20260505234501 11 209 11.3 24.1 0.00 0.00 0.00 59 1009.9
20260505234225 11 164 12.9 30.6 0.00 0.00 0.00 59 1010.0
20260505233501 11 144 14.5 30.6 0.00 0.00 0.00 59 1010.1
20260505233001 11 94 11.3 24.1 0.00 0.00 0.00 61 1010.2
20260505232500 10 196 8.0 17.7 0.00 0.00 0.00 62 1010.1
20260505232001 10 190 8.0 17.7 0.00 0.00 0.00 61 1010.2
20260505231501 11 186 8.0 17.7 0.00 0.00 0.00 60 1010.2
20260505231001 11 207 8.0 19.3 0.00 0.00 0.00 60 1010.2
20260505230501 11 205 11.3 25.7 0.00 0.00 0.00 58 1010.2
20260505230003 11 188 12.9 25.7 0.00 0.00 0.00 58 1010.2
20260505225502 11 148 11.3 20.9 0.00 0.00 0.00 58 1010.2
20260505225002 11 122 8.0 20.9 0.00 0.00 0.00 58 1010.2
20260505224502 11 165 8.0 20.9 0.00 0.00 0.00 58 1010.3
20260505224002 11 151 11.3 20.9 0.00 0.00 0.00 58 1010.3
20260505223503 11 115 12.9 20.9 0.00 0.00 0.00 58 1010.3
20260505223227 11 140 12.9 20.9 0.00 0.00 0.00 59 1010.3
20260505222725 11 101 11.3 22.5 0.00 0.00 0.00 58 1010.3
20260505222002 11 139 12.9 25.7 0.00 0.00 0.00 58 1010.2
20260505221501 12 138 16.1 33.8 0.00 0.00 0.00 57 1010.2
20260505221001 12 119 14.5 33.8 0.00 0.00 0.00 56 1010.3
20260505220502 12 175 8.0 25.7 0.00 0.00 0.00 56 1010.2
20260505220001 12 134 8.0 25.7 0.00 0.00 0.00 56 1010.1
20260505215500 12 206 11.3 24.1 0.00 0.00 0.00 55 1010.2
20260505215228 12 175 12.9 24.1 0.00 0.00 0.00 56 1010.3
20260505214501 12 180 12.9 24.1 0.00 0.00 0.00 55 1010.3
20260505214001 12 147 11.3 19.3 0.00 0.00 0.00 56 1010.4
20260505213516 11 192 11.3 17.7 0.00 0.00 0.00 58 1010.4
20260505213002 11 195 11.3 17.7 0.00 0.00 0.00 59 1010.4
20260505212506 11 134 11.3 24.1 0.00 0.00 0.00 58 1010.5
20260505212247 11 180 8.0 24.1 0.00 0.00 0.00 60 1010.4
20260505211504 10 125 8.0 17.7 0.00 0.00 0.00 63 1010.5
20260505211008 10 135 8.0 17.7 0.00 0.00 0.00 66 1010.4
20260505210502 10 150 8.0 14.5 0.00 0.00 0.00 65 1010.5
20260505210002 10 138 6.4 14.5 0.00 0.00 0.00 65 1010.5
20260505205501 11 138 6.4 19.3 0.00 0.00 0.00 62 1010.4
20260505205231 12 123 11.3 20.9 0.00 0.00 0.00 59 1010.4
20260505204501 12 135 12.9 20.9 0.00 0.00 0.00 59 1010.5
20260505204001 11 166 12.9 24.1 0.00 0.00 0.00 61 1010.5
20260505203730 12 146 14.5 25.7 0.00 0.00 0.00 61 1010.5
20260505203002 12 154 16.1 35.4 0.00 0.00 0.00 61 1010.6
20260505202501 11 121 14.5 35.4 0.00 0.00 0.00 61 1010.6
20260505202002 11 123 14.5 25.7 0.00 0.00 0.00 61 1010.5
20260505201729 11 159 14.5 29.0 0.00 0.00 0.00 61 1010.6
20260505201225 12 138 14.5 32.2 0.00 0.00 0.00 61 1010.5
20260505200457 12 171 14.5 32.2 0.00 0.00 0.00 61 1010.3
20260505195956 12 157 14.5 30.6 0.00 0.00 0.00 61 1010.4
20260505195457 12 134 12.9 22.5 0.00 0.00 0.00 61 1010.3
20260505194957 12 129 12.9 29.0 0.00 0.00 0.00 60 1010.3
20260505194454 12 176 12.9 29.0 0.00 0.00 0.00 60 1010.3
20260505193956 12 157 14.5 24.1 0.00 0.00 0.00 60 1010.1
20260505193459 12 120 14.5 24.1 0.00 0.00 0.00 60 1010.0
20260505192957 12 131 12.9 24.1 0.00 0.00 0.00 61 1010.0
20260505192456 11 155 14.5 29.0 0.00 0.00 0.00 61 1010.0
20260505191952 11 146 14.5 29.0 0.00 0.00 0.00 62 1009.9
20260505191452 11 152 11.3 25.7 0.00 0.00 0.00 62 1009.9
20260505190952 11 148 11.3 22.5 0.00 0.00 0.00 64 1009.7
20260505190452 11 146 11.3 19.3 0.00 0.00 0.00 64 1009.7
20260505185951 11 123 12.9 22.5 0.00 0.00 0.00 62 1009.7
20260505185452 12 130 14.5 29.0 0.00 0.00 0.00 62 1009.9
20260505185215 12 126 16.1 32.2 0.00 0.00 0.00 61 1010.0
20260505184452 12 144 14.5 32.2 0.00 0.00 0.00 61 1009.6
20260505184442 12 153 14.5 30.6 0.00 0.00 0.00 61 1009.4
20260505183440 12 150 16.1 30.6 0.00 0.00 0.00 60 1009.4
20260505182936 12 141 16.1 30.6 0.00 0.00 0.00 60 1009.3
20260505182436 12 127 16.1 30.6 0.00 0.00 0.00 60 1009.3
20260505181936 12 136 14.5 30.6 0.00 0.00 0.00 59 1009.4
20260505181436 12 181 16.1 37.0 0.00 0.00 0.00 59 1009.4
20260505180936 12 151 16.1 37.0 0.00 0.00 0.00 59 1009.5
20260505180436 12 199 16.1 32.2 0.00 0.00 0.00 59 1009.4
20260505175935 12 156 17.7 33.8 0.00 0.00 0.00 58 1009.4
20260505175436 12 173 16.1 33.8 0.00 0.00 0.00 58 1009.5
20260505174936 12 180 14.5 30.6 0.00 0.00 0.00 57 1009.4
20260505174436 12 196 14.5 37.0 0.00 0.00 0.00 57 1009.6
20260505174430 13 154 17.7 37.0 0.00 0.00 0.00 57 1009.5
20260505173435 13 142 17.7 32.2 0.00 0.00 0.00 56 1009.4
20260505172937 13 152 12.9 30.6 0.00 0.00 0.00 56 1009.4
20260505172436 13 148 12.9 24.1 0.00 0.00 0.00 56 1009.4
20260505171937 13 157 12.9 24.1 0.00 0.00 0.00 55 1009.4
20260505171438 13 157 11.3 22.5 0.00 0.00 0.00 55 1009.3
20260505170937 13 186 8.0 22.5 0.00 0.00 0.00 56 1009.2
20260505170437 13 167 6.4 19.3 0.00 0.00 0.00 56 1009.0
20260505170210 13 138 11.3 20.9 0.00 0.00 0.00 56 1009.3
20260505165438 13 144 12.9 22.5 0.00 0.00 0.00 56 1009.3
20260505164929 13 129 12.9 29.0 0.00 0.00 0.00 56 1009.4
20260505164431 13 113 12.9 29.0 0.00 0.00 0.00 56 1009.5
20260505163930 13 100 14.5 25.7 0.00 0.00 0.00 56 1009.6
20260505163431 13 146 14.5 29.0 0.00 0.00 0.00 56 1009.7
20260505163159 13 13 14.5 29.0 0.00 0.00 0.00 56 1009.9
20260505162432 13 135 14.5 29.0 0.00 0.00 0.00 56 1009.7
20260505161930 13 142 16.1 30.6 0.00 0.00 0.00 56 1009.7
20260505161431 13 160 17.7 33.8 0.00 0.00 0.00 56 1010.0
20260505160931 13 105 16.1 33.8 0.00 0.00 0.00 56 1010.1
20260505160430 13 156 14.5 30.6 0.00 0.00 0.00 56 1010.3
20260505152930 13 114 16.1 29.0 0.00 0.00 0.00 59 1010.4
20260505152429 13 155 17.7 32.2 0.00 0.00 0.00 59 1010.4
20260505151929 13 163 17.7 33.8 0.00 0.00 0.00 60 1010.5
20260505151429 13 163 16.1 33.8 0.00 0.00 0.00 60 1010.6
20260505151154 13 150 14.5 30.6 0.00 0.00 0.00 61 1010.5
20260505150429 12 134 16.1 30.6 0.00 0.00 0.00 63 1010.6
20260505140430 13 107 14.5 30.6 0.00 0.00 0.00 56 1010.3
20260505124423 14 141 11.3 20.9 0.00 0.00 0.00 55 1010.5
20260505123924 14 65 11.3 20.9 0.00 0.00 0.00 53 1010.6
20260505123423 14 141 11.3 25.7 0.00 0.00 0.00 53 1010.6
20260505122923 14 144 11.3 25.7 0.00 0.00 0.00 53 1010.5
20260505122647 14 140 11.3 20.9 0.00 0.00 0.00 54 1010.6
20260505122143 14 128 12.9 20.9 0.00 0.00 0.00 54 1010.8
20260505121655 14 152 12.9 25.7 0.00 0.00 0.00 53 1010.8
20260505120923 14 147 12.9 25.7 0.00 0.00 0.00 52 1010.9
20260505120423 14 129 12.9 30.6 0.00 0.00 0.00 52 1010.9
20260505115924 15 140 11.3 30.6 0.00 0.00 0.00 52 1010.9
20260505115424 15 153 8.0 19.3 0.00 0.00 0.00 51 1010.8
20260505114925 15 171 8.0 22.5 0.00 0.00 0.00 51 1010.6
20260505114423 15 124 8.0 24.1 0.00 0.00 0.00 53 1010.8
20260505113922 15 127 11.3 24.1 0.00 0.00 0.00 51 1010.8
20260505113701 15 153 8.0 20.9 0.00 0.00 0.00 50 1010.5
20260505112904 15 112 11.3 25.7 0.00 0.00 0.00 50 1010.6
20260505112624 15 119 12.9 30.6 0.00 0.00 0.00 51 1010.9
20260505111857 15 140 16.1 35.4 0.00 0.00 0.00 51 1011.0
20260505111357 15 175 14.5 35.4 0.00 0.00 0.00 51 1011.1
20260505110857 15 207 8.0 29.0 0.00 0.00 0.00 51 1010.9
20260505110357 15 204 11.3 29.0 0.00 0.00 0.00 50 1011.0
20260505101858 16 165 16.1 33.8 0.00 0.00 0.00 45 1011.0
20260505101401 16 155 19.3 37.0 0.00 0.00 0.00 44 1011.0
20260505100856 16 148 19.3 37.0 0.00 0.00 0.00 44 1011.0
20260505100357 16 159 17.7 32.2 0.00 0.00 0.00 44 1010.9
20260505095856 16 161 16.1 32.2 0.00 0.00 0.00 44 1010.9
20260505095356 16 139 12.9 24.1 0.00 0.00 0.00 45 1010.6
20260505094857 16 111 14.5 25.7 0.00 0.00 0.00 45 1010.8
20260505094358 16 139 14.5 25.7 0.00 0.00 0.00 44 1011.0
20260505093856 16 107 12.9 25.7 0.00 0.00 0.00 42 1010.8
20260505093357 16 130 14.5 25.7 0.00 0.00 0.00 43 1010.8
20260505092856 16 141 14.5 24.1 0.00 0.00 0.00 43 1010.9
20260505092621 16 151 12.9 22.5 0.00 0.00 0.00 42 1011.0
20260505091852 16 87 14.5 32.2 0.00 0.00 0.00 42 1010.9
20260505091352 16 153 14.5 32.2 0.00 0.00 0.00 43 1011.2
20260505090853 16 130 14.5 32.2 0.00 0.00 0.00 43 1011.0
20260505090351 15 117 14.5 32.2 0.00 0.00 0.00 42 1011.0
20260505085850 15 117 14.5 30.6 0.00 0.00 0.00 44 1010.9
20260505085349 15 146 12.9 30.6 0.00 0.00 0.00 42 1010.9
20260505084848 15 142 12.9 32.2 0.00 0.00 0.00 44 1011.0
20260505084349 15 134 14.5 33.8 0.00 0.00 0.00 42 1011.1
20260505083848 15 146 14.5 33.8 0.00 0.00 0.00 43 1011.2
20260505083619 15 160 12.9 25.7 0.00 0.00 0.00 44 1011.1
20260505082843 15 139 14.5 25.7 0.00 0.00 0.00 46 1011.0
20260505082337 14 82 14.5 25.7 0.00 0.00 0.00 46 1011.1
20260505081830 14 146 14.5 32.2 0.00 0.00 0.00 46 1011.1
20260505081329 14 151 16.1 32.2 0.00 0.00 0.00 46 1011.0
20260505080830 14 145 12.9 29.0 0.00 0.00 0.00 46 1011.0
20260505080331 14 175 14.5 33.8 0.00 0.00 0.00 48 1010.9
20260505075829 14 148 14.5 33.8 0.00 0.00 0.00 48 1011.1
20260505075329 14 138 14.5 30.6 0.00 0.00 0.00 47 1011.1
20260505074831 14 149 17.7 33.8 0.00 0.00 0.00 47 1011.2
20260505074329 15 150 19.3 35.4 0.00 0.00 0.00 46 1011.4
20260505073830 15 163 19.3 38.6 0.00 0.00 0.00 48 1011.4
20260505073328 15 174 19.3 38.6 0.00 0.00 0.00 48 1011.4
20260505072829 14 131 19.3 35.4 0.00 0.00 0.00 49 1011.4
20260505072329 14 126 19.3 35.4 0.00 0.00 0.00 48 1011.4
20260505071829 14 153 16.1 35.4 0.00 0.00 0.00 49 1012.2
20260505071821 14 132 14.5 35.4 0.00 0.00 0.00 48 1011.3
20260505071058 14 134 14.5 29.0 0.00 0.00 0.00 49 1011.5
20260505070329 14 121 17.7 38.6 0.00 0.00 0.00 48 1011.4
20260505065829 14 150 16.1 38.6 0.00 0.00 0.00 47 1011.5
20260505065329 14 127 17.7 40.2 0.00 0.00 0.00 47 1011.8
20260505064824 14 115 19.3 40.2 0.00 0.00 0.00 48 1011.9
20260505064318 14 140 17.7 38.6 0.00 0.00 0.00 49 1011.7
20260505063812 14 126 16.1 35.4 0.00 0.00 0.00 48 1011.9
20260505063540 14 156 14.5 33.8 0.00 0.00 0.00 47 1011.8
20260505062810 14 138 14.5 30.6 0.00 0.00 0.00 47 1011.8
20260505062310 13 157 17.7 32.2 0.00 0.00 0.00 49 1011.9
20260505061810 13 138 17.7 35.4 0.00 0.00 0.00 49 1011.8
20260505061309 13 93 17.7 35.4 0.00 0.00 0.00 50 1011.8
20260505060810 13 103 19.3 40.2 0.00 0.00 0.00 50 1011.8
20260505060311 13 150 19.3 40.2 0.00 0.00 0.00 53 1011.8
20260505055810 12 136 19.3 35.4 0.00 0.00 0.00 53 1011.8
20260505055310 12 169 19.3 37.0 0.00 0.00 0.00 53 1011.9
20260505055043 12 167 17.7 37.0 0.00 0.00 0.00 52 1011.8
20260505055039 12 162 17.7 35.4 0.00 0.00 0.00 51 1011.8
20260505053810 12 119 16.1 35.4 0.00 0.00 0.00 52 1011.9
20260505053317 12 194 14.5 29.0 0.00 0.00 0.00 53 1011.7
20260505052810 12 134 12.9 29.0 0.00 0.00 0.00 55 1011.8
20260505052309 12 138 12.9 30.6 0.00 0.00 0.00 55 1011.8
20260505052300 12 166 12.9 30.6 0.00 0.00 0.00 55 1011.8
20260505051311 12 174 12.9 24.1 0.00 0.00 0.00 55 1011.8
20260505051039 12 203 11.3 24.1 0.00 0.00 0.00 57 1011.8
20260505050309 12 191 11.3 19.3 0.00 0.00 0.00 57 1011.9
20260505041306 12 138 14.5 33.8 0.00 0.00 0.00 58 1012.1
20260505040806 12 167 12.9 30.6 0.00 0.00 0.00 58 1012.0
20260505040306 12 142 12.9 30.6 0.00 0.00 0.00 58 1012.1
20260505035806 12 195 12.9 25.7 0.00 0.00 0.00 58 1012.1
20260505035305 12 220 11.3 22.5 0.00 0.00 0.00 58 1012.0
20260505034811 12 152 12.9 30.6 0.00 0.00 0.00 57 1012.1
20260505034529 12 114 12.9 30.6 0.00 0.00 0.00 58 1012.2
20260505033807 12 65 11.3 22.5 0.00 0.00 0.00 58 1012.1
20260505033307 12 170 12.9 30.6 0.00 0.00 0.00 58 1012.1
20260505032805 12 203 14.5 30.6 0.00 0.00 0.00 58 1012.1
20260505032525 12 88 14.5 30.6 0.00 0.00 0.00 58 1012.2
20260505031805 12 82 14.5 30.6 0.00 0.00 0.00 58 1012.2
20260505031306 12 192 12.9 29.0 0.00 0.00 0.00 57 1012.2
20260505030804 12 94 14.5 29.0 0.00 0.00 0.00 58 1012.3
20260505030303 12 196 14.5 33.8 0.00 0.00 0.00 57 1012.3
20260505025804 12 177 11.3 33.8 0.00 0.00 0.00 58 1012.2